Volver al catálogo

STARLINK-33730

ActivoComunicacionesVLEO
NORAD 63439·PAYLOAD·🇺🇸 United States

Lanzado Apr 4, 2025 desde Vandenberg Space Force Base

Loading…

Próximos Pases (próximas 24 horas)

TLE

ActualizadoSource: CelesTrak SupGP

Época: Sep 14, 2026, 22:31 UTC

1 63439C 25069G   26257.93868056 -.00005530  00000+0 -16344-3 0  2576
2 63439  53.1600 335.5094 0001206  82.8170 186.9795 15.34384886    12

Sigue STARLINK-33730 en tiempo real con AllMySat

Download on the App Store